[[{"header":{"parameterUnit":"m.s-1","parameterCategory":2,"la1":30.2991,"la2":30.254,"lo1":-89.0895,"lo2":-89.0444,"dy":0.0017,"dx":0.0017,"nx":28,"ny":28,"refTime":"2023-10-19T21:00:00:Z","depth":"0","parameterNumber":2,"parameterNumberName":"U-component_of_CURRENTS"},"data":[0,0,0,0,0,0,0,0,0,0,0,0,0,0,0,0,0,0,0,0,0,0,0,0,0,0,0,0,0,0,0,0,0,0,0,0,0,0,0,0,0,0,0,0,0,0,0,0,0,0,0,0,0,0,0,0,0,0,0.4517,0.4517,0,0.4531,0.4531,0.4531,0.4494,0.4493,0.4492,0.4491,0.4381,0.4378,0.4376,0,0,0,0,0,0,0,0,0,0,0,0,0,0.4501,0.45,0.4517,0.4517,0.4518,0.4531,0.4531,0.4531,0.4494,0.4493,0.4492,0.4491,0.4381,0.4379,0.4376,0,0,0,0,0,0,0,0,0,0,0,0,0,0.4507,0.45,0.4517,0.4503,0.4502,0.4531,0.4531,0.4531,0.4494,0.4493,0.4492,0.449,0.4382,0.4379,0.4376,0.4382,0,0,0.4366,0.4365,0,0,0,0,0,0,0,0,0.4507,0.4508,0.4505,0.4504,0.4503,0.4512,0.4485,0.4476,0.4494,0.4494,0.4491,0.449,0.4416,0.441,0.4413,0.4377,0.4372,0.4366,0.4364,0.4362,0.4362,0,0,0,0,0,0,0,0.4506,0.4507,0.4519,0.4505,0.4505,0.4512,0.451,0.4484,0.4457,0.4494,0.4492,0.4499,0.4414,0.4416,0.441,0.4371,0.4366,0.4363,0.4361,0.436,0.4354,0.4356,0,0,0,0,0,0,0.451,0.4507,0.4519,0.452,0.4506,0.4513,0.4511,0.4508,0.446,0.4454,0.45,0.4497,0.4422,0.4413,0.4405,0.446,0.4362,0.4359,0.4358,0.4352,0.4355,0.4357,0,0,0,0,0,0,0.451,0.4511,0.4518,0.4517,0.4518,0.4515,0.4511,0.4509,0.4523,0.4467,0.4457,0.4518,0.4421,0.441,0.4383,0.4453,0.4358,0.4355,0.435,0.4353,0.4356,0.4535,0,0,0,0,0,0,0.4509,0.451,0.4519,0.4517,0.4519,0.4551,0.4513,0.451,0.453,0.4527,0.4479,0.4467,0.4419,0.4389,0.438,0.4446,0.4353,0.4348,0.4352,0.4355,0.4527,0.4544,0.4558,0,0,0,0,0,0.4508,0.4519,0.4519,0.4521,0.4527,0.4553,0.4555,0.4546,0.4533,0.4551,0.4506,0.4469,0.4404,0.4387,0.4377,0.4444,0.4347,0.4351,0.4354,0.452,0.4541,0.4558,0,0,0,0,0,0,0.4501,0.4517,0.4516,0.4527,0.4549,0.4548,0.4563,0.4564,0.4548,0.4536,0.4479,0.4464,0.4477,0.4424,0.4407,0.445,0.4375,0.4378,0.4505,0.4523,0.4539,0.4554,0.435,0,0,0,0,0,0.451,0.4531,0.4543,0.4556,0.4567,0.4573,0.4586,0.4584,0.4569,0.4563,0.4528,0.4492,0.4487,0.4473,0.4447,0.446,0.4451,0.4498,0.4514,0.4528,0.4532,0.4596,0.4619,0.437,0.437,0.437,0,0,0.4509,0.4525,0.4533,0.456,0.457,0.4595,0.4576,0.4602,0.4629,0.4551,0.4562,0.4544,0.4501,0.4523,0.4525,0.4486,0.4595,0.4533,0.4545,0.4542,0.4603,0.4628,0.465,0.4372,0.4372,0.4371,0,0,0.4519,0.4535,0.4554,0.4581,0.4614,0.4624,0.464,0.4652,0.4664,0.4679,0.4643,0.4665,0.4626,0.4633,0.4627,0.471,0.4678,0.4703,0.4794,0.4858,0.488,0.4899,0.4932,0.4953,0.4709,0.4709,0.4709,0,0.4514,0.4537,0.4566,0.4595,0.462,0.4641,0.4668,0.4695,0.4699,0.4725,0.4696,0.4718,0.469,0.475,0.4782,0.4753,0.4763,0.4734,0.4883,0.4901,0.4918,0.4947,0.4967,0.4718,0.4717,0.4716,0.4715,0,0.4536,0.4562,0.4579,0.4623,0.4663,0.469,0.4735,0.4776,0.4796,0.4822,0.4889,0.487,0.4887,0.4904,0.4866,0.4979,0.4941,0.4904,0.4846,0.4955,0.4977,0.4995,0.4731,0.4728,0.4725,0.4723,0,0,0.4476,0.4573,0.4574,0.4601,0.4679,0.47,0.4784,0.4856,0.4911,0.4951,0.5029,0.5065,0.5079,0.5073,0.506,0.5116,0.5257,0.5066,0.5065,0.5117,0.5386,0.522,0.5223,0.5253,0.5257,0.526,0.536,0,0.4471,0.4536,0.4589,0.464,0.4673,0.4745,0.4816,0.4898,0.4968,0.505,0.511,0.5165,0.5139,0.5165,0.5231,0.5245,0.531,0.5231,0.5255,0.5255,0.5111,0.524,0.5048,0.5108,0.5377,0.538,0.5382,0,0.4455,0.4506,0.4562,0.4657,0.4675,0.4713,0.484,0.491,0.5061,0.5119,0.5226,0.5269,0.5384,0.5333,0.5454,0.5406,0.5415,0.5422,0.5425,0.5216,0.5123,0.5038,0.513,0.5062,0.5409,0.5407,0.5405,0,0.439,0.4476,0.452,0.4549,0.4663,0.4706,0.4777,0.4928,0.5012,0.5177,0.5266,0.5388,0.5454,0.552,0.5556,0.5521,0.5665,0.5613,0.5476,0.5463,0.5272,0.5234,0.531,0.5706,0.5706,0.5705,0.5705,0,0.4355,0.4378,0.4485,0.4499,0.4563,0.4661,0.4755,0.4859,0.5024,0.5112,0.5291,0.5378,0.5507,0.5605,0.5618,0.5606,0.5725,0.5516,0.5492,0.5325,0.5292,0.5194,0.516,0.5709,0.5708,0.5707,0.5707,0,0.4268,0.4341,0.4384,0.4492,0.453,0.4575,0.4738,0.48,0.4986,0.5118,0.5182,0.5405,0.5507,0.5619,0.5711,0.5657,0.5525,0.5635,0.5413,0.5358,0.5093,0.5073,0.4872,0.4734,0.5494,0.549,0.5487,0,0.4234,0.4246,0.4353,0.438,0.4418,0.4512,0.4569,0.4755,0.4821,0.5095,0.5126,0.533,0.5382,0.5502,0.5478,0.549,0.5399,0.5304,0.5186,0.5075,0.5039,0.4851,0.4738,0.5024,0.5018,0.5013,0.5009,0,0.4144,0.4176,0.4213,0.4274,0.4317,0.4393,0.4483,0.4542,0.473,0.4832,0.4949,0.5035,0.5178,0.5107,0.5158,0.5139,0.5058,0.5187,0.5162,0.4749,0.4464,0.4319,0.4957,0.4962,0.4967,0.497,0.4973,0.4975,0.4059,0.4062,0.4096,0.4135,0.4179,0.4207,0.4195,0.4273,0.433,0.439,0.4624,0.4648,0.479,0.4812,0.4781,0.4681,0.4662,0.4577,0.459,0.443,0.4198,0.4702,0.461,0.4612,0.4614,0.4616,0.4618,0,0.3916,0.3924,0.3953,0.3954,0.3899,0.401,0.405,0.3971,0.3888,0.403,0.4063,0.4203,0.4173,0.4303,0.4322,0.418,0.3982,0.4095,0.3861,0.38,0.4355,0.4237,0.395,0.395,0.3951,0.3951,0.3951,0.3951,0.3835,0.3785,0.3788,0.3644,0.3637,0.35,0.3477,0.3392,0.3423,0.338,0.3435,0.3595,0.3959,0.4097,0.4026,0.3913,0.3681,0.3451,0.3481,0.3982,0.403,0.4076,0.3962,0.3622,0.3621,0.2764,0.2758,0.2753]},{"header":{"parameterUnit":"m.s-1","parameterCategory":2,"la1":30.2991,"la2":30.254,"lo1":-89.0895,"lo2":-89.0444,"dy":0.0017,"dx":0.0017,"nx":28,"ny":28,"refTime":"2023-10-19T21:00:00:Z","depth":"0","parameterNumber":3,"parameterNumberName":"V-component_of_CURRENTS"},"data":[0,0,0,0,0,0,0,0,0,0,0,0,0,0,0,0,0,0,0,0,0,0,0,0,0,0,0,0,0,0,0,0,0,0,0,0,0,0,0,0,0,0,0,0,0,0,0,0,0,0,0,0,0,0,0,0,0,0,0.0186,0.0186,0,0.0166,0.0166,0.0166,0.0131,0.013,0.013,0.013,0.0053,0.0051,0.005,0,0,0,0,0,0,0,0,0,0,0,0,0,0.0165,0.0165,0.0186,0.0186,0.0185,0.0166,0.0166,0.0165,0.0131,0.013,0.013,0.0129,0.0053,0.0051,0.0049,0,0,0,0,0,0,0,0,0,0,0,0,0,0.0161,0.0165,0.0186,0.0167,0.0165,0.0166,0.0166,0.0165,0.0131,0.013,0.013,0.0129,0.0054,0.0052,0.0049,0.005,0,0,0.0042,0.0041,0,0,0,0,0,0,0,0,0.0161,0.0162,0.017,0.0168,0.0167,0.0152,0.013,0.0124,0.0131,0.0143,0.0129,0.0129,0.0082,0.0077,0.0074,0.0046,0.0043,0.0042,0.004,0.0039,0.0039,0,0,0,0,0,0,0,0.0162,0.0162,0.0176,0.017,0.0168,0.015,0.0149,0.0129,0.0115,0.0142,0.0139,0.014,0.008,0.0076,0.0072,0.0042,0.0042,0.004,0.0038,0.0037,0.0015,0.0016,0,0,0,0,0,0,0.017,0.0163,0.0177,0.0176,0.0164,0.0151,0.015,0.0156,0.0116,0.011,0.0141,0.0138,0.0081,0.0075,0.0069,0.0087,0.0039,0.0037,0.0036,0.0014,0.0015,0.0016,0,0,0,0,0,0,0.0169,0.0171,0.0178,0.0169,0.0169,0.0153,0.016,0.0156,0.0156,0.0116,0.0109,0.0145,0.008,0.0072,0.0059,0.0083,0.0036,0.0034,0.0013,0.0015,0.0016,0.0111,0,0,0,0,0,0,0.0169,0.0172,0.0177,0.017,0.017,0.0193,0.0161,0.0156,0.0158,0.0155,0.0118,0.011,0.0079,0.0063,0.0057,0.0079,0.0032,0.0012,0.0014,0.0015,0.0107,0.0115,0.0123,0,0,0,0,0,0.0168,0.0187,0.0177,0.0179,0.0179,0.0194,0.0193,0.0176,0.0159,0.0171,0.014,0.0111,0.0068,0.0062,0.0054,0.0077,0.0012,0.0013,0.0015,0.0103,0.0114,0.0123,0,0,0,0,0,0,0.0182,0.0185,0.0174,0.0192,0.0197,0.0189,0.0194,0.0185,0.0172,0.0164,0.0121,0.0112,0.0107,0.0079,0.0073,0.0073,0.0035,0.0036,0.0105,0.0114,0.0122,0.0155,0.003,0,0,0,0,0,0.0187,0.02,0.0201,0.0215,0.0218,0.0207,0.0209,0.0204,0.0192,0.0185,0.0158,0.0128,0.0109,0.0102,0.0076,0.0081,0.0046,0.0089,0.0097,0.0104,0.0125,0.0099,0.0107,0.0022,0.0022,0.0022,0,0,0.0195,0.0199,0.0205,0.0218,0.0214,0.024,0.0206,0.022,0.0244,0.0179,0.019,0.0151,0.0114,0.0117,0.0113,0.0098,0.0105,0.0107,0.0113,0.0131,0.0102,0.0111,0.0118,0.0023,0.0023,0.0023,0,0,0.0229,0.0222,0.0247,0.0257,0.0266,0.0265,0.0275,0.0273,0.0273,0.028,0.0237,0.0219,0.0189,0.0174,0.0161,0.0198,0.0143,0.0186,0.026,0.0234,0.0242,0.0247,0.0195,0.0195,0.0196,0.0196,0.0196,0,0.0239,0.0275,0.0258,0.0289,0.0304,0.0283,0.0322,0.0325,0.0321,0.033,0.0294,0.0262,0.0221,0.0238,0.0248,0.0219,0.0185,0.0228,0.0246,0.0251,0.0256,0.02,0.02,0.0201,0.02,0.02,0.0199,0,0.03,0.0325,0.0343,0.0374,0.0385,0.0417,0.042,0.0436,0.0423,0.0421,0.0426,0.0371,0.0359,0.0337,0.0303,0.0324,0.0281,0.0255,0.0226,0.0271,0.0208,0.0206,0.0208,0.0206,0.0205,0.0203,0,0,0.0334,0.0379,0.0385,0.0422,0.0436,0.0464,0.0497,0.0533,0.0576,0.0544,0.0591,0.0537,0.0506,0.049,0.0443,0.0419,0.0402,0.0361,0.0357,0.0316,0.0328,0.0289,0.0282,0.038,0.0381,0.0382,0.0265,0,0.0391,0.0474,0.0471,0.055,0.0597,0.0587,0.0631,0.0654,0.0655,0.0693,0.0643,0.0659,0.0568,0.0572,0.0532,0.045,0.0404,0.0435,0.0286,0.0281,0.0248,0.0281,0.0298,0.0197,0.0262,0.0262,0.0261,0,0.0456,0.0508,0.0592,0.0666,0.0683,0.0721,0.0789,0.0832,0.0863,0.0864,0.0856,0.0817,0.0792,0.0705,0.0576,0.0601,0.0474,0.0389,0.0382,0.0318,0.0239,0.0166,0.0189,-0.0021,0.0257,0.0257,0.0258,0,0.0513,0.0594,0.0668,0.0691,0.0765,0.0801,0.0844,0.0883,0.0954,0.0984,0.1032,0.0965,0.0965,0.0813,0.0637,0.0607,0.0486,0.0416,0.0249,0.0243,0.0216,0.0208,0.0031,0.0309,0.031,0.031,0.031,0,0.0587,0.065,0.0706,0.0756,0.0872,0.0879,0.1001,0.1032,0.1103,0.1215,0.1135,0.1199,0.0996,0.0904,0.0699,0.0486,0.0525,0.0274,0.0224,0.0246,0.0242,0.0023,-0.009,0.0306,0.0307,0.0307,0.0308,0,0.0649,0.0679,0.0784,0.0869,0.0906,0.0993,0.1127,0.1222,0.1262,0.1406,0.1432,0.1391,0.1262,0.1035,0.0796,0.0586,0.0248,0.0276,0.0305,0.0261,-0.0112,-0.0219,-0.0448,-0.0536,0.006,0.0059,0.0057,0,0.0694,0.0751,0.0874,0.0955,0.1,0.1128,0.1231,0.1305,0.1412,0.1534,0.1617,0.1543,0.1513,0.1143,0.0769,0.0402,0.0201,0.0162,0.0101,-0.0117,-0.0274,-0.0358,-0.0421,0.0083,0.0082,0.0081,0.0081,0,0.0795,0.0825,0.0916,0.1072,0.1188,0.1338,0.1478,0.159,0.17,0.181,0.1916,0.1899,0.1555,0.1202,0.071,0.0452,0.0023,0.0132,-0.0088,-0.0258,-0.0364,-0.0476,0.0117,0.0074,0.0075,0.0075,0.0075,0.0076,0.0873,0.095,0.1058,0.1207,0.1348,0.1519,0.1653,0.1798,0.1983,0.2143,0.2116,0.2127,0.1633,0.0959,0.0585,-0.0066,-0.0083,-0.0283,-0.0396,-0.0461,-0.054,0.0028,-0.007,-0.007,-0.007,-0.007,-0.007,0,0.0971,0.1051,0.1191,0.1365,0.152,0.1575,0.1804,0.1934,0.2143,0.2283,0.2347,0.2145,0.1506,0.0891,0.0004,-0.0491,-0.0649,-0.0749,-0.0864,-0.0903,-0.0393,-0.0384,-0.0558,-0.0558,-0.0557,-0.0557,-0.0557,-0.0557,0.1033,0.1163,0.122,0.1472,0.1598,0.1803,0.1936,0.2119,0.2267,0.2439,0.2478,0.2472,0.2043,0.0398,-0.0706,-0.0961,-0.1261,-0.1358,-0.1518,-0.1177,-0.1142,-0.1108,-0.1126,-0.1453,-0.1454,-0.1954,-0.196,-0.1964]}],[{"header":{"parameterUnit":"m.s-1","parameterCategory":2,"la1":30.2991,"la2":30.254,"lo1":-89.0895,"lo2":-89.0444,"dy":0.0017,"dx":0.0017,"nx":28,"ny":28,"refTime":"2023-10-19T21:00:00:Z","depth":"2","parameterNumber":2,"parameterNumberName":"U-component_of_CURRENTS"},"data":[0,0,0,0,0,0,0,0,0,0,0,0,0,0,0,0,0,0,0,0,0,0,0,0,0,0,0,0,0,0,0,0,0,0,0,0,0,0,0,0,0,0,0,0,0,0,0,0,0,0,0,0,0,0,0,0,0,0,0.3573,0.3574,0,0.3569,0.3568,0.3568,0.3529,0.3528,0.3528,0.3528,0.3569,0.3571,0.3572,0,0,0,0,0,0,0,0,0,0,0,0,0,0.3524,0.3525,0.3573,0.3574,0.3574,0.3569,0.3568,0.3567,0.3529,0.3528,0.3528,0.3528,0.3569,0.3571,0.3572,0,0,0,0,0,0,0,0,0,0,0,0,0,0.3529,0.3525,0.3573,0.3559,0.3558,0.3569,0.3568,0.3567,0.3529,0.3528,0.3528,0.3527,0.3568,0.357,0.3573,0.3597,0,0,0.3579,0.358,0,0,0,0,0,0,0,0,0.3529,0.353,0.3561,0.356,0.356,0.3555,0.3566,0.3582,0.3529,0.3533,0.3528,0.3527,0.3573,0.3575,0.3565,0.3599,0.36,0.3579,0.3581,0.3582,0.3582,0,0,0,0,0,0,0,0.3528,0.353,0.3565,0.3562,0.3561,0.3545,0.3545,0.3568,0.3552,0.3533,0.3532,0.3542,0.3572,0.3563,0.3566,0.3601,0.3579,0.3581,0.3583,0.3583,0.37,0.3702,0,0,0,0,0,0,0.3544,0.353,0.3565,0.3565,0.355,0.3547,0.3546,0.3551,0.3551,0.3552,0.3542,0.354,0.356,0.3564,0.3568,0.3667,0.3582,0.3584,0.3585,0.3698,0.3701,0.3703,0,0,0,0,0,0,0.3543,0.3547,0.3565,0.3553,0.3555,0.355,0.3555,0.3552,0.3577,0.3559,0.3559,0.3575,0.356,0.3565,0.361,0.3666,0.3585,0.3587,0.3696,0.3699,0.3702,0.3821,0,0,0,0,0,0,0.3541,0.3546,0.3568,0.3554,0.3556,0.3595,0.3556,0.3552,0.3585,0.3583,0.3587,0.3588,0.356,0.3607,0.3612,0.3667,0.3588,0.3694,0.3698,0.3701,0.3815,0.3828,0.3838,0,0,0,0,0,0.354,0.356,0.3569,0.3575,0.3582,0.3597,0.3597,0.3586,0.3588,0.3605,0.3607,0.3589,0.3632,0.3611,0.3616,0.3673,0.3692,0.3697,0.3701,0.381,0.3825,0.3838,0,0,0,0,0,0,0.3551,0.3558,0.3568,0.3591,0.3611,0.3593,0.3608,0.3617,0.3631,0.3636,0.3618,0.362,0.3681,0.366,0.3638,0.3714,0.3658,0.3664,0.3739,0.3754,0.3765,0.379,0.359,0,0,0,0,0,0.3568,0.3579,0.3596,0.3617,0.3631,0.3635,0.3647,0.3649,0.3655,0.3661,0.3665,0.3672,0.3697,0.3713,0.3721,0.3772,0.3774,0.3808,0.382,0.3831,0.3853,0.3906,0.3926,0.3716,0.3716,0.3716,0,0,0.3565,0.3585,0.3583,0.3621,0.3628,0.3653,0.3639,0.3668,0.3694,0.3667,0.3707,0.3724,0.3721,0.3767,0.3793,0.3761,0.389,0.3836,0.3845,0.3862,0.3913,0.3933,0.3952,0.3719,0.3718,0.3718,0,0,0.3568,0.3599,0.3609,0.3641,0.3684,0.3688,0.3714,0.373,0.3743,0.3796,0.3782,0.3833,0.3862,0.3867,0.3876,0.3963,0.3955,0.3972,0.4054,0.4105,0.4123,0.4139,0.4168,0.4185,0.3973,0.3973,0.3974,0,0.3574,0.3599,0.3618,0.3657,0.3684,0.3714,0.3743,0.3766,0.3797,0.3831,0.3823,0.3916,0.3908,0.3987,0.4007,0.3994,0.4018,0.4002,0.4123,0.4139,0.4153,0.4178,0.4196,0.398,0.3979,0.3978,0.3978,0,0.3585,0.3625,0.364,0.3691,0.3726,0.3761,0.3801,0.3852,0.3889,0.3916,0.4021,0.4034,0.4087,0.4101,0.4083,0.4191,0.4174,0.4138,0.4092,0.4182,0.4202,0.4219,0.3989,0.3986,0.3984,0.3983,0,0,0.3534,0.3626,0.3633,0.367,0.3754,0.3772,0.385,0.3918,0.398,0.405,0.414,0.4204,0.4241,0.4254,0.4259,0.4312,0.4422,0.4282,0.4281,0.4318,0.4542,0.4408,0.4413,0.4422,0.4425,0.4428,0.4514,0,0.3538,0.3603,0.3653,0.3714,0.3749,0.3827,0.389,0.3968,0.404,0.4133,0.4214,0.4295,0.4288,0.4339,0.4398,0.4417,0.4473,0.4402,0.4442,0.4443,0.432,0.443,0.4101,0.4141,0.453,0.4533,0.4535,0,0.3524,0.3578,0.3638,0.3737,0.3759,0.3812,0.3934,0.3999,0.4146,0.4217,0.4348,0.4401,0.452,0.4487,0.4608,0.4572,0.4577,0.4588,0.459,0.4438,0.434,0.4113,0.4156,0.4562,0.456,0.4558,0.4556,0,0.3464,0.3558,0.3605,0.3643,0.3764,0.3823,0.3895,0.4032,0.4121,0.4288,0.4387,0.4517,0.4607,0.4663,0.4688,0.4667,0.4799,0.475,0.4642,0.4631,0.4343,0.43,0.484,0.484,0.484,0.484,0.4839,0,0.3452,0.3487,0.3586,0.3625,0.3702,0.3793,0.3914,0.4012,0.4186,0.4279,0.4431,0.4524,0.4665,0.4744,0.4743,0.4748,0.484,0.469,0.466,0.4372,0.4333,0.4682,0.4662,0.4843,0.4842,0.4842,0.4841,0,0.3392,0.3459,0.3521,0.3642,0.3686,0.3745,0.3939,0.4005,0.4194,0.4332,0.4398,0.4586,0.4671,0.4772,0.485,0.4805,0.4813,0.478,0.4426,0.4354,0.46,0.4585,0.469,0.4686,0.4683,0.4681,0.4679,0,0.3365,0.3389,0.3515,0.3551,0.3618,0.3734,0.3797,0.3995,0.4063,0.4319,0.4343,0.4533,0.4578,0.4684,0.4652,0.4659,0.4748,0.434,0.4231,0.4632,0.4593,0.4583,0.4573,0.3898,0.389,0.3883,0.3877,0,0.3307,0.3355,0.3411,0.3477,0.3542,0.3628,0.3731,0.3797,0.3985,0.4109,0.4195,0.4273,0.4404,0.4262,0.4319,0.4263,0.4315,0.4198,0.4731,0.3979,0.389,0.385,0.3865,0.3816,0.3822,0.3827,0.383,0.3833,0.3258,0.3268,0.3319,0.3368,0.3424,0.344,0.3451,0.3538,0.3621,0.3712,0.3894,0.39,0.3979,0.3881,0.3763,0.3699,0.399,0.3821,0.3841,0.3868,0.3753,0.3662,0.3525,0.3529,0.3532,0.3536,0.3539,0,0.3125,0.3161,0.3192,0.3227,0.3177,0.3283,0.3316,0.3268,0.3237,0.3378,0.3443,0.3223,0.3176,0.3251,0.3072,0.3082,0.304,0.295,0.2873,0.2938,0.2995,0.2832,0.2361,0.2357,0.2353,0.2349,0,0,0.3074,0.3038,0.3032,0.2924,0.2948,0.2844,0.2814,0.2778,0.2816,0.2765,0.2768,0.3031,0.3167,0.2717,0.2678,0.2482,0.2676,0.2384,0.3342,0.3318,0.3369,0.3529,0.3357,0,0,0,0,0]},{"header":{"parameterUnit":"m.s-1","parameterCategory":2,"la1":30.2991,"la2":30.254,"lo1":-89.0895,"lo2":-89.0444,"dy":0.0017,"dx":0.0017,"nx":28,"ny":28,"refTime":"2023-10-19T21:00:00:Z","depth":"2","parameterNumber":3,"parameterNumberName":"V-component_of_CURRENTS"},"data":[0,0,0,0,0,0,0,0,0,0,0,0,0,0,0,0,0,0,0,0,0,0,0,0,0,0,0,0,0,0,0,0,0,0,0,0,0,0,0,0,0,0,0,0,0,0,0,0,0,0,0,0,0,0,0,0,0,0,0.0184,0.0183,0,0.0157,0.0157,0.0157,0.0133,0.0132,0.0132,0.0132,0.0065,0.0064,0.0062,0,0,0,0,0,0,0,0,0,0,0,0,0,0.0175,0.0176,0.0184,0.0183,0.0183,0.0157,0.0157,0.0156,0.0133,0.0132,0.0132,0.0132,0.0066,0.0064,0.0062,0,0,0,0,0,0,0,0,0,0,0,0,0,0.0166,0.0176,0.0184,0.0169,0.0167,0.0157,0.0157,0.0156,0.0133,0.0132,0.0132,0.0132,0.0066,0.0064,0.0062,0.0054,0,0,0.0054,0.0053,0,0,0,0,0,0,0,0,0.0167,0.0167,0.0171,0.017,0.0168,0.0148,0.0129,0.012,0.0133,0.0145,0.0132,0.0131,0.009,0.0086,0.0081,0.0051,0.0048,0.0054,0.0053,0.0052,0.0051,0,0,0,0,0,0,0,0.0168,0.0167,0.0173,0.0171,0.0169,0.015,0.0149,0.0128,0.0118,0.0144,0.0142,0.0141,0.0089,0.0083,0.0079,0.0047,0.0054,0.0052,0.0051,0.005,0.0008,0.0009,0,0,0,0,0,0,0.0175,0.0168,0.0173,0.0172,0.0167,0.0151,0.0149,0.0154,0.0119,0.0114,0.0141,0.014,0.0088,0.0082,0.0077,0.0081,0.0052,0.005,0.0048,0.0008,0.0009,0.0009,0,0,0,0,0,0,0.0175,0.0176,0.0174,0.0169,0.0168,0.0152,0.0157,0.0154,0.0153,0.0118,0.0112,0.0143,0.0087,0.008,0.0065,0.0078,0.0049,0.0046,0.0008,0.0008,0.0009,0.008,0,0,0,0,0,0,0.0175,0.0176,0.018,0.017,0.0169,0.018,0.0158,0.0154,0.0152,0.015,0.0118,0.0111,0.0086,0.0069,0.0063,0.0074,0.0045,0.0007,0.0008,0.0009,0.0077,0.0082,0.0087,0,0,0,0,0,0.0175,0.0191,0.0181,0.0181,0.0176,0.0181,0.0179,0.0165,0.0153,0.016,0.0135,0.0112,0.0068,0.0068,0.006,0.0071,0.0007,0.0008,0.0009,0.0075,0.0081,0.0087,0,0,0,0,0,0,0.0194,0.0189,0.0178,0.0192,0.0189,0.0178,0.018,0.0171,0.0157,0.0154,0.0118,0.011,0.01,0.0075,0.0075,0.0059,0.0033,0.0032,0.0086,0.0092,0.0097,0.0132,0.0043,0,0,0,0,0,0.0198,0.0208,0.0199,0.0211,0.0209,0.0194,0.0193,0.0188,0.0175,0.0169,0.0144,0.0117,0.0097,0.0087,0.0064,0.0057,0.0028,0.0058,0.0063,0.0068,0.009,0.0053,0.0057,0.0011,0.0011,0.0011,0,0,0.0208,0.0208,0.0212,0.0215,0.0208,0.0224,0.0193,0.0201,0.0218,0.0163,0.017,0.0134,0.0098,0.0092,0.0085,0.0073,0.0062,0.0069,0.0073,0.0094,0.0054,0.0059,0.0063,0.0012,0.0012,0.0011,0,0,0.0244,0.0232,0.0254,0.0256,0.0255,0.0248,0.0254,0.0244,0.0241,0.024,0.0205,0.018,0.0149,0.0129,0.0114,0.0133,0.0089,0.0121,0.0178,0.0141,0.0145,0.0148,0.0105,0.0103,0.0125,0.0125,0.0125,0,0.0256,0.0285,0.0261,0.0286,0.0295,0.0264,0.0296,0.029,0.0278,0.0283,0.0252,0.0212,0.017,0.0174,0.0176,0.0147,0.0118,0.0159,0.015,0.0152,0.0154,0.0108,0.0106,0.0129,0.0128,0.0128,0.0128,0,0.0312,0.0333,0.0346,0.0366,0.0371,0.0393,0.0382,0.0389,0.037,0.036,0.0354,0.0295,0.0276,0.025,0.0218,0.0217,0.0188,0.0159,0.0138,0.0163,0.0113,0.0109,0.0134,0.0133,0.0132,0.0131,0,0,0.0349,0.0382,0.0386,0.0418,0.0418,0.0439,0.0458,0.0475,0.0505,0.0464,0.0494,0.0432,0.0397,0.0378,0.0327,0.0291,0.0259,0.024,0.0236,0.0205,0.0175,0.0136,0.0127,0.0229,0.0229,0.0229,0.013,0,0.0403,0.0476,0.0468,0.0535,0.0573,0.0552,0.0584,0.0592,0.0576,0.0594,0.0531,0.0533,0.0447,0.0444,0.0391,0.0302,0.0255,0.0289,0.0149,0.0145,0.0114,0.0124,0.0153,0.0066,0.0126,0.0125,0.0125,0,0.0461,0.0509,0.0584,0.0646,0.0659,0.0687,0.0734,0.0764,0.0764,0.0755,0.0728,0.0676,0.0628,0.0549,0.0405,0.0431,0.0315,0.0231,0.0224,0.0167,0.01,0.0052,0.0056,0.0118,0.0119,0.0119,0.012,0,0.0521,0.0588,0.0657,0.0676,0.0734,0.0765,0.0797,0.0812,0.0869,0.0864,0.0895,0.0804,0.0788,0.0633,0.0442,0.0428,0.0276,0.0229,0.0081,0.0076,0.0065,0.0059,0.0126,0.0126,0.0126,0.0126,0.0127,0,0.0587,0.0644,0.0694,0.0739,0.0844,0.0845,0.0947,0.0965,0.1009,0.1092,0.0991,0.1018,0.0811,0.0692,0.0493,0.0279,0.0305,0.0102,0.0054,0.0087,0.0085,0.0106,0.0105,0.0123,0.0123,0.0124,0.0125,0,0.0644,0.0672,0.0768,0.0843,0.0879,0.0957,0.1072,0.1145,0.1167,0.1271,0.1283,0.1195,0.1037,0.0805,0.0556,0.0366,0.015,0.0062,0.0112,0.0072,-0.0041,-0.0037,-0.0104,-0.0106,-0.0108,-0.0109,-0.011,0,0.0683,0.0738,0.0856,0.0929,0.0966,0.1082,0.1172,0.123,0.1312,0.1376,0.1432,0.132,0.1249,0.0863,0.0513,0.017,0.0128,-0.0033,-0.006,-0.0021,-0.0061,-0.0055,-0.0049,-0.0058,-0.0058,-0.0059,-0.0059,0,0.0768,0.0801,0.0883,0.1032,0.1134,0.1269,0.1389,0.1482,0.1559,0.1633,0.1674,0.1621,0.1271,0.092,0.0459,0.0227,0.0023,-0.0057,-0.002,-0.0001,0.0015,-0.0022,-0.0016,-0.0065,-0.0064,-0.0064,-0.0063,-0.0063,0.0834,0.0903,0.1006,0.1145,0.1272,0.142,0.1534,0.1651,0.1795,0.1898,0.1837,0.1763,0.1385,0.0789,0.0377,-0.0039,-0.001,-0.0159,-0.0154,-0.0149,-0.0123,-0.0111,-0.0209,-0.021,-0.021,-0.021,-0.021,0,0.0913,0.0987,0.1115,0.1277,0.1409,0.1467,0.1659,0.1757,0.1914,0.1998,0.2021,0.1656,0.1265,0.0826,0.0203,-0.0166,-0.018,-0.0282,-0.022,-0.0211,-0.0204,-0.018,-0.0283,-0.0284,-0.0285,-0.0287,0,0,0.0961,0.1078,0.1131,0.1351,0.1468,0.1643,0.175,0.1894,0.1991,0.2057,0.2022,0.1935,0.1404,0.0938,0.0433,0.0069,0.0018,0.0003,0.0105,0.0248,0.0259,-0.0089,-0.0035,0,0,0,0,0]}],[{"header":{"parameterUnit":"m.s-1","parameterCategory":2,"la1":30.2991,"la2":30.254,"lo1":-89.0895,"lo2":-89.0444,"dy":0.0017,"dx":0.0017,"nx":28,"ny":28,"refTime":"2023-10-19T21:00:00:Z","depth":"4","parameterNumber":2,"parameterNumberName":"U-component_of_CURRENTS"},"data":[0,0,0,0,0,0,0,0,0,0,0,0,0,0,0,0,0,0,0,0,0,0,0,0,0,0,0,0,0,0,0,0,0,0,0,0,0,0,0,0,0,0,0,0,0,0,0,0,0,0,0,0,0,0,0,0,0,0,0.1881,0.1882,0,0.1956,0.1957,0.1957,0.2015,0.2015,0.2016,0.2016,0.2166,0.217,0.2173,0,0,0,0,0,0,0,0,0,0,0,0,0,0.1767,0.1768,0.1881,0.1882,0.1883,0.1956,0.1957,0.1958,0.2015,0.2015,0.2016,0.2017,0.2165,0.2169,0.2173,0,0,0,0,0,0,0,0,0,0,0,0,0,0.1826,0.1769,0.188,0.192,0.1925,0.1955,0.1957,0.1958,0.2014,0.2015,0.2016,0.2017,0.2164,0.2169,0.2174,0.2188,0,0,0.219,0.2192,0,0,0,0,0,0,0,0,0.1822,0.183,0.1914,0.1918,0.1923,0.1977,0.1971,0.2039,0.2014,0.198,0.2016,0.2017,0.211,0.212,0.213,0.2195,0.2201,0.219,0.2193,0.2196,0.2197,0,0,0,0,0,0,0,0.1818,0.1827,0.191,0.1915,0.192,0.1928,0.1937,0.1984,0.204,0.1983,0.1987,0.1996,0.2113,0.2124,0.2134,0.2203,0.219,0.2195,0.2198,0.22,0.2397,0.2399,0,0,0,0,0,0,0.1811,0.1823,0.1907,0.1912,0.1875,0.1929,0.194,0.1958,0.2038,0.205,0.1996,0.1999,0.2115,0.2128,0.2139,0.2258,0.2196,0.22,0.2203,0.2395,0.2398,0.24,0,0,0,0,0,0,0.1808,0.1818,0.1904,0.1869,0.1881,0.1931,0.1951,0.1959,0.2012,0.2047,0.2061,0.2044,0.2116,0.2132,0.2225,0.2261,0.2203,0.2207,0.2392,0.2396,0.2399,0.2434,0,0,0,0,0,0,0.1805,0.1817,0.1848,0.1869,0.1883,0.1949,0.195,0.196,0.2014,0.202,0.2092,0.2104,0.2118,0.2217,0.223,0.2267,0.2211,0.239,0.2394,0.2398,0.243,0.2438,0.2445,0,0,0,0,0,0.18,0.1829,0.1849,0.186,0.1917,0.195,0.1959,0.1995,0.2016,0.2045,0.2103,0.2104,0.2251,0.2223,0.2238,0.2277,0.2388,0.2393,0.2397,0.2427,0.2437,0.2445,0,0,0,0,0,0,0.1809,0.1838,0.186,0.1903,0.1938,0.1961,0.2,0.2019,0.2085,0.2112,0.2139,0.2156,0.2254,0.2264,0.2232,0.2347,0.2317,0.2325,0.2335,0.2344,0.2351,0.2358,0.2216,0,0,0,0,0,0.1822,0.185,0.1881,0.1923,0.1945,0.1982,0.2009,0.2035,0.2083,0.2114,0.2163,0.222,0.2276,0.231,0.2365,0.2427,0.2447,0.2461,0.2468,0.2474,0.2491,0.2563,0.2578,0.2416,0.2416,0.2416,0,0,0.1833,0.186,0.1876,0.1927,0.1963,0.1997,0.2002,0.206,0.2097,0.2122,0.2213,0.2263,0.2305,0.238,0.2421,0.2396,0.2528,0.248,0.2485,0.2499,0.2569,0.2585,0.2599,0.2419,0.2419,0.2418,0,0,0.1858,0.1905,0.193,0.1962,0.2022,0.2043,0.2067,0.2119,0.216,0.2241,0.2271,0.2341,0.2429,0.2454,0.2477,0.2558,0.2576,0.2585,0.2617,0.2686,0.27,0.2712,0.274,0.2755,0.2574,0.2574,0.2574,0,0.1879,0.1916,0.1946,0.1982,0.2018,0.2066,0.2105,0.2146,0.2224,0.227,0.2284,0.2432,0.2456,0.2537,0.2561,0.2573,0.2616,0.2574,0.2695,0.2708,0.272,0.2746,0.2761,0.2576,0.2576,0.2576,0.2576,0,0.1903,0.1953,0.198,0.2036,0.2076,0.2127,0.2176,0.2241,0.23,0.234,0.2463,0.2508,0.2593,0.2604,0.2608,0.2707,0.2709,0.2705,0.2667,0.2738,0.2761,0.2776,0.258,0.2579,0.2578,0.2578,0,0,0.1896,0.1979,0.1993,0.2028,0.2115,0.2142,0.2227,0.2306,0.2376,0.2459,0.2548,0.263,0.2677,0.2707,0.2727,0.277,0.2865,0.278,0.2783,0.2798,0.3017,0.2833,0.2832,0.2901,0.2905,0.2908,0.2991,0,0.1916,0.1976,0.2021,0.2093,0.2128,0.2207,0.2277,0.236,0.2446,0.2545,0.261,0.2715,0.2708,0.2769,0.2815,0.2877,0.2914,0.2842,0.2956,0.2958,0.2778,0.2847,0.2919,0.3003,0.3006,0.3009,0.3011,0,0.1914,0.1959,0.2028,0.2122,0.2151,0.2213,0.2344,0.2416,0.2556,0.2632,0.2747,0.2813,0.2915,0.2889,0.3024,0.2996,0.3016,0.3035,0.3038,0.2869,0.2804,0.2924,0.3039,0.3037,0.3035,0.3033,0.3031,0,0.1858,0.1957,0.2015,0.2048,0.2166,0.2238,0.2318,0.2459,0.2544,0.2711,0.2802,0.2927,0.3017,0.3086,0.3138,0.3112,0.3263,0.3221,0.3065,0.3051,0.3174,0.316,0.3303,0.3303,0.3303,0.3303,0.3302,0,0.1831,0.1873,0.2005,0.2036,0.2129,0.2226,0.2359,0.2456,0.262,0.2719,0.2859,0.2954,0.3083,0.3177,0.3193,0.3183,0.3316,0.3086,0.3071,0.3183,0.317,0.3184,0.3169,0.3306,0.3305,0.3304,0.3304,0,0.1738,0.1826,0.1894,0.2045,0.2106,0.2172,0.2374,0.2457,0.2636,0.2773,0.284,0.3023,0.3142,0.3228,0.3332,0.3237,0.325,0.3205,0.3323,0.3311,0.297,0.2957,0.3029,0.3024,0.3019,0.3015,0.3012,0,0.1679,0.1718,0.1888,0.1944,0.2024,0.2159,0.2254,0.2446,0.253,0.2788,0.2826,0.3019,0.3112,0.3117,0.3216,0.3231,0.3187,0.3157,0.3048,0.2969,0.2949,0.2942,0.2935,0.3004,0.3003,0.3002,0.3001,0,0.1582,0.1672,0.174,0.1861,0.1969,0.2066,0.2213,0.2268,0.2479,0.2665,0.2758,0.2825,0.294,0.3003,0.304,0.3042,0.316,0.3106,0.3114,0.3012,0.294,0.2922,0.2921,0.2984,0.2987,0.2988,0.2989,0,0.1519,0.1539,0.166,0.175,0.1873,0.1928,0.2029,0.2136,0.2249,0.2517,0.2546,0.2744,0.2914,0.2907,0.295,0.2937,0.2874,0.2755,0.278,0.2799,0.2683,0.2556,0.2482,0,0,0,0,0,0.1438,0.1456,0.1537,0.1623,0.1741,0.1811,0.1975,0.2079,0.2292,0.2291,0.241,0.2505,0.258,0.2689,0.2626,0.2835,0.2878,0.2747,0.275,0.2894,0.2912,0.2796,0,0,0,0,0,0,0.1386,0.1446,0.1484,0.1507,0.1548,0.165,0.1746,0.189,0.1903,0.2128,0.2188,0.2348,0.2463,0.259,0.2579,0.2606,0.2553,0.287,0.2863,0.2883,0.29,0.2915,0.2802,0,0,0,0,0]},{"header":{"parameterUnit":"m.s-1","parameterCategory":2,"la1":30.2991,"la2":30.254,"lo1":-89.0895,"lo2":-89.0444,"dy":0.0017,"dx":0.0017,"nx":28,"ny":28,"refTime":"2023-10-19T21:00:00:Z","depth":"4","parameterNumber":3,"parameterNumberName":"V-component_of_CURRENTS"},"data":[0,0,0,0,0,0,0,0,0,0,0,0,0,0,0,0,0,0,0,0,0,0,0,0,0,0,0,0,0,0,0,0,0,0,0,0,0,0,0,0,0,0,0,0,0,0,0,0,0,0,0,0,0,0,0,0,0,0,0.016,0.016,0,0.0139,0.0139,0.0139,0.0131,0.0131,0.0131,0.0132,0.0091,0.009,0.0089,0,0,0,0,0,0,0,0,0,0,0,0,0,0.016,0.016,0.016,0.016,0.016,0.014,0.0139,0.0139,0.0131,0.0131,0.0131,0.0132,0.0091,0.009,0.0089,0,0,0,0,0,0,0,0,0,0,0,0,0,0.0152,0.016,0.016,0.0153,0.0152,0.014,0.0139,0.0139,0.0131,0.0131,0.0132,0.0132,0.0092,0.009,0.0089,0.0077,0,0,0.0083,0.0083,0,0,0,0,0,0,0,0,0.0152,0.0152,0.0155,0.0154,0.0153,0.0138,0.0124,0.0117,0.0131,0.014,0.0132,0.0132,0.0105,0.0102,0.0098,0.0075,0.0073,0.0083,0.0082,0.0081,0.0081,0,0,0,0,0,0,0,0.0153,0.0153,0.0152,0.0154,0.0153,0.0139,0.0139,0.0123,0.0122,0.0139,0.0138,0.0135,0.0104,0.01,0.0097,0.0073,0.0083,0.0082,0.0081,0.008,0.0033,0.0032,0,0,0,0,0,0,0.0157,0.0153,0.0153,0.0152,0.0152,0.014,0.0139,0.0143,0.0122,0.0119,0.0135,0.0135,0.0103,0.0099,0.0096,0.0087,0.0082,0.008,0.0079,0.0033,0.0033,0.0032,0,0,0,0,0,0,0.0157,0.0157,0.0154,0.0151,0.015,0.014,0.0144,0.0142,0.0143,0.012,0.0117,0.0139,0.0103,0.0098,0.0085,0.0085,0.0079,0.0078,0.0033,0.0033,0.0032,0.0064,0,0,0,0,0,0,0.0157,0.0158,0.0164,0.0152,0.015,0.0152,0.0144,0.0142,0.0141,0.0141,0.0121,0.0117,0.0103,0.0088,0.0084,0.0082,0.0076,0.0033,0.0033,0.0033,0.0064,0.0065,0.0067,0,0,0,0,0,0.0157,0.0167,0.0164,0.0164,0.0159,0.0152,0.015,0.0143,0.0141,0.0144,0.0129,0.0118,0.0082,0.0087,0.0081,0.008,0.0034,0.0033,0.0033,0.0063,0.0065,0.0066,0,0,0,0,0,0,0.0175,0.0167,0.0164,0.0172,0.0165,0.0151,0.0153,0.0147,0.0138,0.014,0.0118,0.0113,0.01,0.0084,0.009,0.0063,0.0055,0.0053,0.0079,0.0081,0.0082,0.0107,0.0075,0,0,0,0,0,0.018,0.0185,0.0174,0.0182,0.0178,0.0166,0.0163,0.016,0.0149,0.0146,0.013,0.0111,0.0092,0.0084,0.0066,0.0054,0.003,0.0047,0.0049,0.005,0.0065,0.002,0.0019,0.003,0.003,0.003,0,0,0.019,0.0186,0.0189,0.0185,0.0178,0.0186,0.0165,0.0166,0.0175,0.0142,0.0145,0.0117,0.009,0.0076,0.0068,0.0064,0.0032,0.0049,0.0051,0.0066,0.002,0.0019,0.0018,0.003,0.003,0.003,0,0,0.0215,0.0207,0.0221,0.0217,0.0211,0.0203,0.0205,0.0193,0.0188,0.0184,0.0159,0.0131,0.011,0.0086,0.0072,0.0069,0.0041,0.0061,0.0089,0.0045,0.0044,0.0043,0.0004,-0.0001,0.0062,0.0062,0.0062,0,0.0228,0.0246,0.0224,0.0238,0.0243,0.0214,0.0235,0.0224,0.021,0.0209,0.0191,0.0147,0.0115,0.0097,0.0092,0.0073,0.0048,0.0086,0.0047,0.0046,0.0044,0.0004,-0.0001,0.0064,0.0063,0.0063,0.0063,0,0.0263,0.028,0.0287,0.0297,0.0296,0.0307,0.029,0.0289,0.0274,0.0259,0.0237,0.0185,0.0163,0.0136,0.0114,0.0087,0.0073,0.0054,0.0047,0.0045,0.0003,-0.0004,0.0066,0.0065,0.0065,0.0064,0,0,0.0291,0.031,0.0315,0.0338,0.0331,0.034,0.0347,0.0346,0.036,0.0317,0.0323,0.0261,0.0228,0.021,0.0165,0.0119,0.0069,0.0088,0.0084,0.0056,-0.0023,-0.0024,-0.0031,0.0044,0.0044,0.0043,-0.005,0,0.0329,0.0379,0.0372,0.0419,0.0443,0.0423,0.0439,0.0431,0.0409,0.0401,0.0333,0.0319,0.0258,0.0247,0.0188,0.0106,0.0055,0.0096,-0.0022,-0.0026,-0.0021,-0.0038,0.0041,-0.0055,-0.0057,-0.0058,-0.0059,0,0.0365,0.0398,0.0454,0.0497,0.0505,0.0526,0.0547,0.0561,0.0531,0.0514,0.0471,0.0417,0.0349,0.0295,0.0152,0.0184,0.0089,0.0014,0.0008,-0.0002,-0.0038,-0.0054,-0.0071,-0.007,-0.0069,-0.0068,-0.0068,0,0.0404,0.0455,0.0507,0.052,0.0558,0.0583,0.0605,0.0596,0.0621,0.0589,0.0591,0.0495,0.0457,0.0327,0.0161,0.0162,-0.0004,-0.0025,-0.0118,-0.0119,-0.0104,-0.0102,-0.0128,-0.0128,-0.0128,-0.0128,-0.0128,0,0.0443,0.0486,0.0535,0.0567,0.0642,0.0644,0.071,0.0713,0.0719,0.0751,0.0659,0.0647,0.0464,0.0342,0.0188,0.0016,0.0012,-0.0109,-0.0142,-0.009,-0.0085,-0.011,-0.0106,-0.0131,-0.0131,-0.013,-0.0129,0,0.0469,0.0499,0.0569,0.0632,0.0665,0.0718,0.0798,0.0838,0.0836,0.0871,0.0869,0.0762,0.0614,0.0413,0.0194,0.0064,-0.011,-0.0175,-0.0101,-0.0129,-0.02,-0.0194,-0.0269,-0.0269,-0.027,-0.0271,-0.0271,0,0.0485,0.0526,0.0626,0.0681,0.0715,0.08,0.0865,0.0901,0.0938,0.0939,0.0953,0.0832,0.0735,0.0432,0.0211,-0.0078,-0.0127,-0.0221,-0.0214,-0.0189,-0.0214,-0.0207,-0.02,-0.0272,-0.0272,-0.0273,-0.0273,0,0.0518,0.0553,0.0612,0.0732,0.0814,0.0909,0.0994,0.1034,0.1071,0.1071,0.1031,0.0876,0.0705,0.0456,0.0222,0.001,-0.016,-0.0229,-0.0229,-0.0222,-0.0195,-0.0217,-0.021,-0.0275,-0.0275,-0.0274,-0.0274,0,0.054,0.0584,0.0669,0.0771,0.0883,0.0978,0.1026,0.1075,0.1119,0.1114,0.1098,0.0915,0.0808,0.0501,0.0285,0.0077,0.0028,-0.0046,-0.0056,-0.0056,0.0025,0.0093,0.0077,0,0,0,0,0,0.0557,0.0608,0.0704,0.0817,0.0927,0.0994,0.1094,0.1126,0.1166,0.1154,0.1131,0.0975,0.0678,0.0544,0.0341,0.0254,-0.0026,0.0006,-0.0121,-0.0288,-0.0285,-0.0226,0,0,0,0,0,0,0.0565,0.0649,0.0698,0.0836,0.0918,0.1041,0.1108,0.1136,0.1126,0.1134,0.0982,0.0918,0.0625,0.0799,0.0336,0.0272,0.0162,-0.013,-0.0135,-0.0289,-0.0287,-0.0285,-0.0223,0,0,0,0,0]}]]